"Pseudo-MPEC" for ZKA8C1E

Created 2018 May 19 19:18:16 UT using Find_Orb

Click here for an explanation of pseudo-MPECs

 
 Astrometry: 
     ZKA8C1E  C2018 05 17.29531 15 08 19.48 +02 44 17.6          21.1 GUNEOCPG96
     ZKA8C1E  C2018 05 17.30056 15 08 19.21 +02 44 12.3          20.6 GUNEOCPG96
     ZKA8C1E  C2018 05 17.30579 15 08 18.98 +02 44 07.0          20.8 GUNEOCPG96
     ZKA8C1E  C2018 05 17.31104 15 08 18.70 +02 44 02.6          21.0 GUNEOCPG96
     ZKA8C1E  C2018 05 17.38424 15 08 15.25 +02 42 53.1          21.0 GUNEOCPI52
     ZKA8C1E  C2018 05 17.38855 15 08 15.02 +02 42 48.5          21.3 GUNEOCPI52
     ZKA8C1E  C2018 05 17.39286 15 08 14.83 +02 42 44.9          21.1 GUNEOCPI52
     ZKA8C1E  C2018 05 17.39603 15 08 14.69 +02 42 41.8          21.4 GUNEOCPI52
     ZKA8C1E KC2018 05 17v^AstrometryMR=6q;(NeuO,!7Yl!wa5Wacx]wd357e,(6H0kvPfL01
     ZKA8C1E pC2018 05 17%6g8.:wJOT1l,HCp5redacted;2bU?jkseegT\c^BtC_3CG'@qVOL01
     ZKA8C1E KC2018 05 17]#5_F,uYHPx8u?F2\+4$YX=lUeMP6*%Ma:3-.@H^:Y7;ksFNEOCPL01
     ZKA8C1E  C2018 05 18.34496 15 07 38.37 +02 27 30.0          21.7 GUNEOCPI52
     ZKA8C1E  C2018 05 18.35207 15 07 38.07 +02 27 23.3          22.8 GUNEOCPI52
     ZKA8C1E  C2018 05 18.36028 15 07 37.68 +02 27 15.5          21.7 GUNEOCPI52
     ZKA8C1E  C2018 05 18.36359 15 07 37.51 +02 27 12.2          21.8 GUNEOCPI52
     ZKA8C1E  C2018 05 19.30797 15 07 02.87 +02 11 45.8          21.4 GUNEOCPI52
     ZKA8C1E  C2018 05 19.31211 15 07 02.69 +02 11 41.4          21.4 GUNEOCPI52
     ZKA8C1E  C2018 05 19.31625 15 07 02.50 +02 11 37.4          21.3 GUNEOCPI52

Station data:
(G96) Mt. Lemmon Survey  (N32.442754 W110.788720)  US/Arizona.  Observers E.
   J. Christensen, A. R. Gibbs, A. D. Grauer, R. E. Hill, J. A. Johnson, R.
   A. Kowalski, S. M. Larson, F. C. Shelly. 1.5-m reflector + CCD.
(I52) Steward Observatory, Mt. Lemmon Station  (N32.442547 W110.788920)
   US/Arizona.
(L01) Višnjan Observatory, Tičan  (N45.290900 E13.749300)  Croatia.

Orbital elements:  ZKA8C1E
   Perihelion 2018 Mar 18.953864 +/- 1.85 TT = 22:53:33 (JD 2458196.453864)
Epoch 2018 May 19.0 TT = JDT 2458257.5   Earth MOID: 0.2928   Ma: 0.0693
M  28.72698 +/- 1.0                 (J2000 ecliptic)          AutoNEOCP
n   0.47057823 +/- 0.00853          Peri.   82.30406 +/- 2.2
a   1.63699803 +/- 0.0198           Node   106.80292 +/- 0.7
e   0.2265390 +/- 0.00573           Incl.    6.14004 +/- 0.14
P   2.09/765.00d           H 22.4   G  0.15   U  9.5  
q 1.26615402 +/- 0.00843    Q 2.00784204 +/- 0.0323
From 18 observations 2018 May 17-19; mean residual 0".31
Residuals in arcseconds: 
180517 G96  .08-  .22+    180517 I52  .02+  .25+    180518 I52  .00   .19-    
180517 G96  .31-  .10-    180517 I52  .12+  .18+    180518 I52  .19-  .00     
180517 G96  .04+  .44-    180517 L01  .49-  .33+    180518 I52  .46-  .08-    
180517 G96  .35-  .14+    180517 L01  .98+  .47-    180519 I52  .07-  .23+    
180517 I52  .29+  .24+    180517 L01  .57+  .28+    180519 I52  .03+  .06-    
180517 I52  .14-  .26-    180518 I52  .43-  .41-    180519 I52  .01-  .04+    

Ephemerides (geocentric):
Date (UTC) HH   RA              Dec         delta   r     elong  mag " sig PA
---- -- -- --  ------------   ------------  ------ ------ -----  --- ---- ---
2018 05 19 19  15 06 45.692   +02 03 56.34  .35100 1.3404 156.2 21.7  .30  76
2018 05 19 20  15 06 44.209   +02 03 14.61  .35112 1.3405 156.2 21.7  .31  80
2018 05 19 21  15 06 42.728   +02 02 32.85  .35124 1.3406 156.1 21.7  .33  83
2018 05 19 22  15 06 41.251   +02 01 51.05  .35136 1.3407 156.1 21.7  .34  86
2018 05 19 23  15 06 39.776   +02 01 09.22  .35148 1.3408 156.1 21.7  .35  89
2018 05 20 00  15 06 38.304   +02 00 27.35  .35160 1.3409 156.1 21.7  .37  92
2018 05 20 01  15 06 36.836   +01 59 45.45  .35172 1.3410 156.1 21.7  .39  94
2018 05 20 02  15 06 35.370   +01 59 03.51  .35184 1.3411 156.1 21.7  .40  97
2018 05 20 03  15 06 33.907   +01 58 21.55  .35197 1.3411 156.1 21.7  .42  99
2018 05 20 04  15 06 32.447   +01 57 39.54  .35209 1.3412 156.0 21.7  .44 101
2018 05 20 05  15 06 30.990   +01 56 57.50  .35221 1.3413 156.0 21.7  .46 103
2018 05 20 06  15 06 29.536   +01 56 15.43  .35233 1.3414 156.0 21.7  .49 105
2018 05 20 07  15 06 28.085   +01 55 33.33  .35246 1.3415 156.0 21.7  .51 107
2018 05 20 08  15 06 26.638   +01 54 51.19  .35258 1.3416 156.0 21.7  .53 108
2018 05 20 09  15 06 25.193   +01 54 09.02  .35270 1.3417 156.0 21.7  .56 110
2018 05 20 10  15 06 23.751   +01 53 26.81  .35283 1.3418 155.9 21.7  .58 111
2018 05 20 11  15 06 22.312   +01 52 44.57  .35295 1.3419 155.9 21.7  .61 112
2018 05 20 12  15 06 20.876   +01 52 02.30  .35307 1.3420 155.9 21.8  .64 113
2018 05 20 13  15 06 19.443   +01 51 19.99  .35320 1.3421 155.9 21.8  .67 115
2018 05 20 14  15 06 18.013   +01 50 37.65  .35332 1.3422 155.9 21.8  .70 116
2018 05 20 15  15 06 16.587   +01 49 55.28  .35345 1.3423 155.9 21.8  .73 117
2018 05 20 16  15 06 15.163   +01 49 12.88  .35357 1.3424 155.8 21.8  .76 117
2018 05 20 17  15 06 13.742   +01 48 30.44  .35369 1.3425 155.8 21.8  .79 118
2018 05 20 18  15 06 12.325   +01 47 47.97  .35382 1.3426 155.8 21.8  .82 119
2018 05 20 19  15 06 10.910   +01 47 05.47  .35394 1.3426 155.8 21.8  .85 120
2018 05 20 20  15 06 09.499   +01 46 22.93  .35407 1.3427 155.8 21.8  .89 120
2018 05 20 21  15 06 08.090   +01 45 40.36  .35420 1.3428 155.7 21.8  .92 121
2018 05 20 22  15 06 06.685   +01 44 57.76  .35432 1.3429 155.7 21.8  .95 122
2018 05 20 23  15 06 05.283   +01 44 15.13  .35445 1.3430 155.7 21.8  .99 122
2018 05 21 00  15 06 03.884   +01 43 32.47  .35457 1.3431 155.7 21.8  1.0 123
2018 05 21 01  15 06 02.488   +01 42 49.77  .35470 1.3432 155.7 21.8  1.1 123
2018 05 21 02  15 06 01.095   +01 42 07.04  .35483 1.3433 155.7 21.8  1.1 124
2018 05 21 03  15 05 59.706   +01 41 24.28  .35495 1.3434 155.6 21.8  1.1 124
2018 05 21 04  15 05 58.319   +01 40 41.49  .35508 1.3435 155.6 21.8  1.2 125
2018 05 21 05  15 05 56.936   +01 39 58.66  .35521 1.3436 155.6 21.8  1.2 125
2018 05 21 06  15 05 55.556   +01 39 15.81  .35534 1.3437 155.6 21.8  1.3 125
2018 05 21 07  15 05 54.179   +01 38 32.92  .35546 1.3438 155.6 21.8  1.3 126
2018 05 21 08  15 05 52.805   +01 37 50.00  .35559 1.3439 155.6 21.8  1.3 126
2018 05 21 09  15 05 51.434   +01 37 07.05  .35572 1.3440 155.5 21.8  1.4 126
2018 05 21 10  15 05 50.066   +01 36 24.07  .35585 1.3441 155.5 21.8  1.4 127
2018 05 21 11  15 05 48.702   +01 35 41.06  .35598 1.3442 155.5 21.8  1.5 127
2018 05 21 12  15 05 47.341   +01 34 58.01  .35610 1.3443 155.5 21.8  1.5 127
2018 05 21 13  15 05 45.983   +01 34 14.94  .35623 1.3444 155.5 21.8  1.5 127
2018 05 21 14  15 05 44.628   +01 33 31.83  .35636 1.3444 155.4 21.8  1.6 128
2018 05 21 15  15 05 43.276   +01 32 48.69  .35649 1.3445 155.4 21.8  1.6 128
2018 05 21 16  15 05 41.928   +01 32 05.53  .35662 1.3446 155.4 21.8  1.7 128
2018 05 21 17  15 05 40.583   +01 31 22.33  .35675 1.3447 155.4 21.8  1.7 128
2018 05 21 18  15 05 39.241   +01 30 39.10  .35688 1.3448 155.4 21.8  1.8 128